This is the latest recevied weather packets stored in our database for station/object KMASWX. If no packets are shown the sender has not sent any weather packets the latest 10 day(s).
| Time | Temp. | Humidity | Pressure | Rain* | Wind** | Luminosity | Snow |
|---|---|---|---|---|---|---|---|
| 1777668557 | 24.44° C | 24% | - | 0 mm | - | - | - |
| 1777668251 | 24.44° C | 23% | - | 0 mm | - | - | - |
| 1777667947 | 24.44° C | 26% | - | 0 mm | - | - | - |
| 1777667643 | 24.44° C | 23% | - | 0 mm | - | - | - |
| 1777667337 | 23.89° C | 25% | - | 0 mm | - | - | - |
| 1777667033 | 23.89° C | 26% | - | 0 mm | - | - | - |
| 1777666730 | 22.78° C | 26% | - | 0 mm | - | - | - |
| 1777666119 | 23.89° C | 26% | - | 0 mm | - | - | - |
| 1777665815 | 22.78° C | 29% | - | 0 mm | - | - | - |
| 1777665512 | 22.22° C | 29% | - | 0 mm | - | - | - |
| 1777665208 | 22.78° C | 28% | - | 0 mm | - | - | - |
| 1777664901 | 22.78° C | 30% | - | 0 mm | - | - | - |
| 1777664598 | 22.78° C | 28% | - | 0 mm | - | - | - |
| 1777664294 | 22.22° C | 30% | - | 0 mm | - | - | - |
| 1777663684 | 21.67° C | 32% | - | 0 mm | - | - | - |
| 1777663380 | 21.11° C | 31% | - | 0 mm | - | - | - |
| 1777663077 | 21.67° C | 32% | - | 0 mm | - | - | - |
| 1777662770 | 21.11° C | 31% | - | 0 mm | - | - | - |
| 1777662466 | 20.56° C | 33% | - | 0 mm | - | - | - |
| 1777662162 | 20.56° C | 32% | - | 0 mm | - | - | - |
| 1777661856 | 20.56° C | 34% | - | 0 mm | - | - | - |
| 1777661553 | 19.44° C | 34% | - | 0 mm | - | - | - |
| 1777661247 | 20.56° C | 33% | - | 0 mm | - | - | - |
| 1777660941 | 20° C | 33% | - | 0 mm | - | - | - |
| 1777660637 | 20° C | 34% | - | 0 mm | - | - | - |
* Rain latest 24 hours (hover to see other rain measurements)
** Current wind speed in m/s (hover to see current wind gust speed)